{"data":{"norad_id":67085,"intl_designator":"2025-298L","name":"STARLINK-35794","alt_names":[],"object_type":"PAYLOAD","status":"ACTIVE","operator":null,"country":"US","launch_date":"2025-12-14","launch_site_code":"AFWTR","launch_vehicle":null,"mission":null,"orbit_class":"UNKNOWN","rcs_meters":null,"size_class":null,"mass_kg":null,"dimensions":null,"purposes":["comms"],"wikipedia_slug":null,"has_3d_model":false,"image_url":null,"decayed_at":null,"tle_current":{"epoch":"2026-09-20T22:24:19.012896Z","epoch_age_seconds":40808,"freshness":"FRESH","line1":"1 67085U 25298L   26263.93355339  .00001581  00000+0  14024-3 0  9999","line2":"2 67085  70.0011 242.1567 0003236 262.9235  97.1556 14.98336533 42461","mean_motion":14.98336533,"eccentricity":0.0003236,"inclination_deg":70.0011,"raan_deg":242.1567,"arg_perigee_deg":262.9235,"mean_anomaly_deg":97.1556,"bstar":0.00014024,"rev_number":4246,"period_min":96.106580082967,"perigee_km":569.78661237231,"apogee_km":574.28476413615,"semimajor_km":6950.1726882542,"source":"CELESTRAK","updated_at":"2026-09-21T09:00:36.099342Z"}}}